| time (UTC) | temp F | wind direction | speed MPH | gust MPH | rain 1hr in | rain 24hr in | rain mn in | humidity % | barometer mb |
| 20260906044533 | 50 | 157 | 0.0 | 2.0 | 0.00 | 0.06 | 0.04 | 93 | 1018.9 |
| 20260906043030 | 50 | 156 | 2.0 | 5.0 | 0.00 | 0.06 | 0.04 | 93 | 1019.1 |
| 20260906041526 | 51 | 157 | 1.0 | 4.0 | 0.00 | 0.06 | 0.04 | 93 | 1019.0 |
| 20260906040029 | 50 | 156 | 2.0 | 5.0 | 0.00 | 0.06 | 0.04 | 92 | 1019.0 |
| 20260906034531 | 51 | 245 | 0.0 | 2.0 | 0.00 | 0.06 | 0.04 | 92 | 1018.8 |
| 20260906033028 | 51 | 203 | 0.0 | 1.0 | 0.00 | 0.06 | 0.04 | 91 | 1018.6 |
| 20260906031528 | 52 | 202 | 1.0 | 3.0 | 0.00 | 0.06 | 0.04 | 90 | 1018.5 |
| 20260906030029 | 53 | 158 | 0.0 | 2.0 | 0.00 | 0.06 | 0.04 | 89 | 1018.5 |
| 20260906023030 | 55 | 159 | 3.0 | 4.0 | 0.00 | 0.06 | 0.04 | 87 | 1018.4 |
| 20260906021528 | 57 | 157 | 0.0 | 3.0 | 0.00 | 0.06 | 0.04 | 85 | 1018.3 |
| 20260906014529 | 58 | 157 | 0.0 | 1.0 | 0.00 | 0.06 | 0.04 | 82 | 1018.3 |
| 20260906013030 | 59 | 165 | 0.0 | 2.0 | 0.00 | 0.06 | 0.04 | 82 | 1018.3 |
| 20260906011531 | 60 | 202 | 0.0 | 1.0 | 0.00 | 0.06 | 0.04 | 81 | 1018.5 |
| 20260906010106 | 61 | 202 | 1.0 | 3.0 | 0.00 | 0.06 | 0.04 | 80 | 1018.7 |
| 20260906003031 | 64 | 246 | 2.0 | 4.0 | 0.03 | 0.06 | 0.04 | 79 | 1018.8 |
| 20260906001530 | 63 | 160 | 0.0 | 4.0 | 0.04 | 0.06 | 0.04 | 82 | 1018.9 |
| 20260905234529 | 59 | 83 | 3.0 | 7.0 | 0.04 | 0.06 | 0.01 | 84 | 1018.9 |
| 20260905233029 | 60 | 172 | 2.0 | 4.0 | 0.01 | 0.03 | 0.00 | 82 | 1019.1 |
| 20260905231528 | 61 | 220 | 0.0 | 4.0 | 0.00 | 0.02 | 0.00 | 80 | 1019.0 |
| 20260905230031 | 62 | 184 | 3.0 | 7.0 | 0.00 | 0.02 | 0.00 | 81 | 1018.9 |
| 20260905223031 | 62 | 212 | 4.0 | 8.0 | 0.00 | 0.02 | 0.00 | 76 | 1018.9 |
| 20260905221531 | 63 | 210 | 3.0 | 6.0 | 0.00 | 0.02 | 0.00 | 73 | 1018.8 |
| 20260905220104 | 65 | 161 | 0.0 | 4.0 | 0.00 | 0.02 | 0.00 | 70 | 1018.6 |
| 20260905214606 | 65 | 40 | 0.0 | 4.0 | 0.00 | 0.02 | 0.00 | 72 | 1018.6 |
| 20260905213033 | 64 | 241 | 1.0 | 4.0 | 0.00 | 0.02 | 0.00 | 73 | 1018.8 |
| 20260905210029 | 63 | 168 | 0.0 | 4.0 | 0.00 | 0.02 | 0.00 | 75 | 1019.2 |
| 20260905203032 | 63 | 137 | 1.0 | 5.0 | 0.00 | 0.02 | 0.00 | 77 | 1019.2 |
| 20260905201530 | 61 | 132 | 2.0 | 5.0 | 0.00 | 0.02 | 0.00 | 79 | 1019.3 |
| 20260905200030 | 61 | 263 | 1.0 | 6.0 | 0.00 | 0.02 | 0.00 | 78 | 1019.4 |
| 20260905194531 | 62 | 239 | 1.0 | 4.0 | 0.00 | 0.02 | 0.00 | 80 | 1019.5 |
| 20260905193031 | 61 | 227 | 1.0 | 4.0 | 0.00 | 0.02 | 0.00 | 81 | 1019.5 |
| 20260905191528 | 61 | 230 | 2.0 | 5.0 | 0.00 | 0.02 | 0.00 | 82 | 1019.6 |
| 20260905190033 | 61 | 247 | 1.0 | 4.0 | 0.00 | 0.02 | 0.00 | 83 | 1019.7 |
| 20260905184530 | 61 | 242 | 1.0 | 4.0 | 0.00 | 0.02 | 0.00 | 83 | 1019.8 |
| 20260905183035 | 62 | 322 | 1.0 | 5.0 | 0.00 | 0.02 | 0.00 | 82 | 1019.8 |
| 20260905181605 | 61 | 351 | 2.0 | 7.0 | 0.00 | 0.02 | 0.00 | 86 | 1019.9 |
| 20260905180032 | 60 | 24 | 1.0 | 5.0 | 0.00 | 0.02 | 0.00 | 89 | 1020.0 |
| 20260905174606 | 58 | 20 | 0.0 | 3.0 | 0.00 | 0.02 | 0.00 | 93 | 1020.0 |
| 20260905173030 | 56 | 45 | 0.0 | 2.0 | 0.00 | 0.02 | 0.00 | 95 | 1020.0 |
| 20260905171644 | 54 | 45 | 0.0 | 0.0 | 0.00 | 0.02 | 0.00 | 96 | 1019.9 |
| 20260905170030 | 53 | 45 | 0.0 | 0.0 | 0.00 | 0.02 | 0.00 | 96 | 1019.9 |
| 20260905164531 | 53 | 36 | 0.0 | 3.0 | 0.00 | 0.02 | 0.00 | 96 | 1019.9 |
| 20260905163107 | 53 | 22 | 0.0 | 0.0 | 0.00 | 0.02 | 0.00 | 96 | 1019.9 |
| 20260905161528 | 52 | 22 | 0.0 | 0.0 | 0.00 | 0.02 | 0.00 | 96 | 1019.8 |
| 20260905160031 | 52 | 22 | 0.0 | 0.0 | 0.00 | 0.02 | 0.00 | 96 | 1019.8 |
| 20260905154531 | 51 | 22 | 0.0 | 1.0 | 0.00 | 0.02 | 0.00 | 96 | 1019.8 |
| 20260905153032 | 50 | 11 | 0.0 | 3.0 | 0.00 | 0.02 | 0.00 | 97 | 1019.8 |
| 20260905151530 | 49 | 202 | 0.0 | 0.0 | 0.00 | 0.02 | 0.00 | 96 | 1019.7 |
| 20260905150031 | 48 | 201 | 0.0 | 0.0 | 0.00 | 0.02 | 0.00 | 96 | 1019.6 |
| 20260905144530 | 47 | 157 | 0.0 | 0.0 | 0.00 | 0.02 | 0.00 | 96 | 1019.5 |
| 20260905143030 | 46 | 157 | 0.0 | 4.0 | 0.00 | 0.02 | 0.00 | 96 | 1019.5 |
| 20260905141541 | 45 | 157 | 0.0 | 4.0 | 0.00 | 0.02 | 0.00 | 96 | 1019.4 |
| 20260905134531 | 43 | 157 | 0.0 | 3.0 | 0.00 | 0.02 | 0.00 | 96 | 1019.2 |
| 20260905133032 | 44 | 157 | 0.0 | 2.0 | 0.00 | 0.02 | 0.00 | 96 | 1019.1 |
| 20260905131530 | 45 | 177 | 0.0 | 2.0 | 0.00 | 0.02 | 0.00 | 96 | 1019.0 |
| 20260905130030 | 45 | 164 | 0.0 | 2.0 | 0.00 | 0.03 | 0.00 | 96 | 1019.0 |
| 20260905124608 | 46 | 157 | 0.0 | 2.0 | 0.00 | 0.03 | 0.00 | 96 | 1019.1 |
| 20260905121605 | 47 | 147 | 0.0 | 2.0 | 0.00 | 0.04 | 0.00 | 96 | 1019.1 |
| 20260905120107 | 47 | 197 | 1.0 | 3.0 | 0.00 | 0.04 | 0.00 | 96 | 1019.1 |
| 20260905114532 | 47 | 247 | 0.0 | 0.0 | 0.00 | 0.04 | 0.00 | 96 | 1018.9 |
| 20260905111532 | 48 | 146 | 0.0 | 1.0 | 0.00 | 0.04 | 0.00 | 96 | 1018.7 |
| 20260905104530 | 48 | 202 | 0.0 | 1.0 | 0.00 | 0.05 | 0.00 | 96 | 1018.8 |
| 20260905103106 | 48 | 202 | 0.0 | 0.0 | 0.00 | 0.05 | 0.00 | 96 | 1018.7 |
| 20260905101531 | 49 | 202 | 0.0 | 0.0 | 0.00 | 0.05 | 0.00 | 95 | 1018.8 |
| 20260905100031 | 49 | 202 | 0.0 | 0.0 | 0.00 | 0.05 | 0.00 | 95 | 1018.8 |
| 20260905093033 | 49 | 202 | 0.0 | 0.0 | 0.00 | 0.05 | 0.00 | 95 | 1018.9 |
| 20260905091530 | 49 | 202 | 0.0 | 0.0 | 0.00 | 0.05 | 0.00 | 95 | 1018.8 |
| 20260905090104 | 49 | 232 | 0.0 | 3.0 | 0.00 | 0.05 | 0.00 | 95 | 1018.7 |
| 20260905083031 | 49 | 247 | 0.0 | 0.0 | 0.00 | 0.05 | 0.00 | 95 | 1018.6 |
| 20260905081531 | 49 | 247 | 0.0 | 0.0 | 0.00 | 0.05 | 0.00 | 95 | 1018.6 |
| 20260905080031 | 49 | 247 | 0.0 | 0.0 | 0.00 | 0.05 | 0.00 | 95 | 1018.5 |
| 20260905074606 | 50 | 232 | 0.0 | 3.0 | 0.00 | 0.05 | 0.00 | 95 | 1018.3 |
| 20260905071604 | 50 | 153 | 1.0 | 2.0 | 0.00 | 0.05 | 0.00 | 94 | 1018.1 |
| 20260905070030 | 50 | 169 | 1.0 | 2.0 | 0.01 | 0.05 | 0.00 | 94 | 1018.0 |
| 20260905063030 | 51 | 196 | 0.0 | 3.0 | 0.02 | 0.05 | 0.05 | 94 | 1017.9 |
| 20260905061531 | 52 | 360 | 1.0 | 3.0 | 0.02 | 0.05 | 0.04 | 94 | 1017.9 |
| 20260905060031 | 52 | 109 | 0.0 | 3.0 | 0.01 | 0.04 | 0.03 | 93 | 1018.1 |
| 20260905054531 | 52 | 153 | 1.0 | 4.0 | 0.00 | 0.03 | 0.03 | 93 | 1018.1 |
| 20260905053031 | 51 | 157 | 2.0 | 4.0 | 0.00 | 0.03 | 0.03 | 93 | 1018.0 |
| 20260905051530 | 51 | 157 | 0.0 | 0.0 | 0.00 | 0.03 | 0.03 | 92 | 1018.0 |